Wednesday, October 01, 2014
20:25 UTC
  |  Log In   |  Register Free
Airport Search:

Petaluma Municipal Airport
(O69)

Petaluma Municipal Airport Diagram
No Airport Diagram Available

FAA data valid effective September 18, 2014 - November 13, 2014 (unless otherwise noted).

 
 
 
 
 
 
 
 
 
 
 
 
 
 

Current Aviation Weather for Petaluma Municipal Airport (O69)

METAR data is unavailable for O69. The nearest METAR location is at KDVO (7.2 nm SE from O69).

The most recent METAR observation for KDVO was updated at: 2009
METAR Summary (Translated METAR)
KDVO
011955Z AUTO 01005KT CLR 29/01 A2989 RMK AO2
(7.2 nm SE from O69)
KAPC
011954Z AUTO 36010G18KT 10SM CLR 31/M02 A2988 RMK AO2 SLP110 T03061017
(15.6 nm SE from O69)
TAF Summary (Translated TAF)
KSTS
(25 nm NW from KDVO)
011723Z 0118/0218 33005KT P6SM SKC FM020300 VRB03KT P6SM SKC
  Airport Weather Conditions for O69

Current weather conditions are
not available for O69


The nearest NOAA weather station
is at DVO, (7.2 nm SE from O69)
  
 Current Weather at DVO
84° F
Fair
North winds at 5.8 mph
DVO NOAA Radar

Pressure: 29.89 in
Humidity: 16%
Wind: North at 5.8 MPH (5 KT)
Dew Point: 33.8°F


Airport Weather Forecast for O69

Translated METAR and TAF for KDVO
Translated METAR for KDVO (2020 UTC 01 October 2014)
found at http://aviationweather.gov/adds/metars/
 
METAR text: KDVO 012015Z AUTO 00000KT CLR 29/00 A2989 RMK AO2
Conditions at: KDVO (NOVATO/GNOSS FLD, CA, US) observed 2015 UTC 01 October 2014
Temperature: 29.0°C (84°F)
Dewpoint: 0.0°C (32°F) [RH = 15%]
Pressure (altimeter): 29.89 inches Hg (1012.3 mb)
Winds: calm
Visibility: missing
Ceiling: at least 12,000 feet AGL
Clouds: sky clear below 12,000 feet AGL
Weather: automated observation with no human augmentation;
there may or may not be significant weather present at this time
Translated TAF for KDVO

There is no translated TAF available for this airport

Find All Airport Services Find A Hotel Find A Rental Car Find A Golf Course Find A Restaurant $100 Hamburger



FBO's on the Field
FBO Company Facility Photos Services Transportation Aviation Fuel Prices: Prices include tax
Catering Weather Repair Courtesy Rental Type 100LL JetA JetA+ MOGAS 8087
 
Petaluma Municipal Airport

Currently rated 4.8 by 1 person
FS:Ascent
Last Updated: Sep-11
Login to update fuel prices
SS:
Contact Petaluma Municipal AirportMore FBO Information
 
Add another FBO Facility Photos Catering Weather Repair Courtesy Rental Type 100LL JetA JetA+ MOGAS 8087
Services Transportation Aviation Fuel Prices: Prices include tax


model-print
model-print
model-print
model-print